Regional Weather Roundup
Issued by NWS

Home | Current Version | Previous Version | Graphics & Text | Print | Product List | Glossary On
Versions: 1 2 3 4 5 6 7 8 9 10 11 12 13 14 15 16 17 18 19 20 21 22 23 24 25 26 27 28 29 30 31 32 33 34 35 36 37 38 39 40 41 42 43 44 45 46 47 48 49 50
000
ASUS43 KMKX 280400
RWRWI

WISCONSIN REGIONAL WEATHER ROUNDUP
NATIONAL WEATHER SERVICE MILWAUKEE/SULLIVAN WI
1100 PM CDT SUN JUL 27 2014

NOTE: "FAIR" INDICATES FEW OR NO CLOUDS BELOW 12,000 FEET WITH NO
SIGNIFICANT WEATHER AND/OR OBSTRUCTIONS TO VISIBILITY.

WIZ001-002-006>008-014>016-023>028-280500-
NORTHWEST WISCONSIN

CITY           SKY/WX    TMP DP  RH WIND       PRES   REMARKS
SUPERIOR ARPT  PTCLDY    54  53  98 CALM      30.09S
ASHLAND        CLEAR     53  52  96 W3        30.10S
HAYWARD        MOCLDY    51  50  96 CALM      30.10R
SIREN          MOCLDY    60  54  82 NW3       30.11R
RICE LAKE      CLEAR     55  52  88 W3        30.11R
LADYSMITH      CLEAR     56  51  84 N8        30.09R
EAU CLAIRE     NOT AVBL
MENOMONIE      CLEAR     59  53  80 W6        30.10R
NEW RICHMOND   MOCLDY    57  55  93 CALM      30.12R
OSCEOLA        CLOUDY    61  60  94 NW3       30.14R
$$

WIZ003>005-009-010-017-018-280500-
NORTH CENTRAL WISCONSIN

CITY           SKY/WX    TMP DP  RH WIND       PRES   REMARKS
WOODRUFF       CLEAR     53  50  89 N3        30.06S
RHINELANDER    CLEAR     53  50  89 N3        30.06R
EAGLE RIVER    CLOUDY    54  48  81 N6        30.05R
LAND O LAKES   MOCLDY    55  50  82 N7        30.06R
PHILLIPS       CLEAR     53  51  94 NW5       30.07R
TOMAHAWK       CLEAR     52  49  90 CALM      30.06R
MEDFORD        CLEAR     54  50  87 N7        30.05S
MERRILL        CLEAR     54  51  92 N5        30.04R
$$

WIZ029-030-035-036-043>047-280500-
CENTRAL WISCONSIN

CITY           SKY/WX    TMP DP  RH WIND       PRES   REMARKS
WAUSAU         CLEAR     57  52  83 N6        30.02R
MOSINEE        CLEAR     54  52  94 NW7       30.04R
MARSHFIELD     CLEAR     56  51  84 NW9       30.04R
STEVENS POINT  CLEAR     55  51  86 NW3       30.03R
WAUPACA        CLEAR     60  54  79 N6        30.00R
WAUTOMA        NOT AVBL
WISC RAPIDS    CLEAR     59  53  80 MISG      30.04R
CAMP DOUGLAS   NOT AVBL
$$

WIZ011>013-019>022-031-037>040-048>050-280500-
NORTHEAST WISCONSIN

CITY           SKY/WX    TMP DP  RH WIND       PRES   REMARKS
ANTIGO         CLEAR     54  50  87 N7        30.02R
STURGEON BAY   CLEAR     61  48  63 N25G33    29.95R
GREEN BAY      CLEAR     60  52  74 NW10      29.97R
MANITOWOC      NOT AVBL
APPLETON       NOT AVBL
CLINTONVILLE   CLEAR     59  50  72 N6        29.99S
OSHKOSH        CLEAR     61  54  77 N12       29.96S
$$

WIZ032>034-041-042-053>061-280500-
SOUTHWEST WISCONSIN

CITY           SKY/WX    TMP DP  RH WIND       PRES   REMARKS
LA CROSSE      CLEAR     64  55  72 N9        30.05R
SPARTA         MOCLDY    62  55  75 N5        30.05R
VIROQUA        CLOUDY    63  57  81 N10G17    30.03R
BOSCOBEL       MOCLDY    66  60  81 N5        30.01R
PRAIRIE DU CHI CLEAR     67  59  76 N8        30.00R
PLATTEVILLE    FAIR      65  61  87 N8        30.00R
$$

WIZ056-057-062-063-064-067-068-280500-
SOUTH CENTRAL WISCONSIN

CITY           SKY/WX    TMP DP  RH WIND       PRES   REMARKS
BARABOO/DELLS  PTCLDY    62  55  76 N6        30.00R
LONE ROCK      NOT AVBL
WATERTOWN      CLOUDY    63  58  84 N12       29.95R
MADISON        MOCLDY    64  56  75 N18       29.98R
MIDDLETON      MOCLDY    64  59  81 N14G21    29.99R
MONROE         CLOUDY    63  61  94 N10       29.96R
JANESVILLE     CLOUDY    68  57  68 N8        29.93R
$$

WIZ051-052-058>065-066-070>072-280500-
SOUTHEAST WISCONSIN

CITY           SKY/WX    TMP DP  RH WIND       PRES   REMARKS
MILWAUKEE      MOCLDY    63  53  70 N12       29.92R
WAUKESHA       CLEAR     59  52  77 N10       29.95R
MILWAUKEE/TIMM CLEAR     61  50  67 N9        29.93R
RACINE         CLOUDY    63  56  78 N14       29.93R
BURLINGTON     MOCLDY    63  56  77 N10       29.93R
KENOSHA        CLOUDY    64  58  80 N15G22    29.92R
FOND DU LAC    PTCLDY    62  54  74 N13       29.96R
SHEBOYGAN      CLOUDY    63  51  65 N14G21    29.93R
WEST BEND      CLEAR     59  52  77 NW9       29.94R
JUNEAU         PTCLDY    62  54  76 N12G18    29.97R
$$

LSZ147-162-280500-
LAKE SUPERIOR

STATION/POSITION TIME  TEMP    WIND        PRES    WAVE
                       AIR SEA DIR/SP/G            HT/PER
                 (UTC) (F)     (DEG/KT/KT) (MB)    (FT/S)
W MID LAKE BUOY  0250   49 43  280/  6/  8 1018.2R   1/ 4
PORT WING        0300   57      CALM  /  4 1018.6R
SAXON HARBOR     0300             CALM     1018.6R
$$

LMZ867-665-643>646-280500-
LAKE MICHIGAN

STATION/POSITION TIME  TEMP    WIND        PRES    WAVE
                       AIR SEA DIR/SP/G            HT/PER
                 (UTC) (F)     (DEG/KT/KT) (MB)    (FT/S)
N MID LAKE BUOY  0150   60 56  340/ 19/ 21 1010.2R   3/ 4
NORTHPORT PIER   0300   61     340/ 23/ 28 1013.2R
KEWAUNEE LAKESHO 0300   63     350/ 12/ 18 1013.8R
SHEBOYGAN LAKESH 0300   64     330/ 15/ 18 1012.7R
PORT WASHINGTON  0340   64     330/  6/ 12 1013.5R
ATWATER BUOY     0300   63      10/ 14     1013.5R
MILWAUKEE LAKESH 0300   64     360/ 15/ 23   N/A
S MID LAKE BUOY  0250   62 61  330/ 23/ 29 1010.0R   4/ 5
KENOSHA   LAKESH 0300   63     360/ 15/ 19 1012.2R
$$

TC  - TEMPERATURE IN CELSIUS
VSB - VISIBILITY IN STATUTE MILES
WCI - WIND CHILL INDEX
HX  - HEAT INDEX




USA.gov is the U.S. government's official web portal to all federal, state and local government web resources and services.